sat.trackr.live / text

‹ back to catalog

STARLINK-33985

NORAD 63943 · 2025-098T

PAYLOAD ACTIVE UNKNOWN

§ Identity

Operator
Country
US
Launch date
2025-05-13
Launch site
AFWTR
Launch vehicle
Mass (kg)
RCS (m²)

Purposes: comms

External: N2YO · Heavens-Above · Gunter

§ Orbital elements

Epoch: 2026-05-25T02:47:31.212672Z

Period
96.10 min
Inclination
70.0010°
Eccentricity
0.0003090
Mean motion
14.98365945 rev/d
Perigee alt
569.8 km
Apogee alt
574.1 km
Semi-major
6,950.1 km
B*
1.0150e-3
RAAN
81.6186°
Arg perigee
267.4171°
Mean anomaly
92.6634°
Rev number
5,800

§ Raw data

STARLINK-339851 63943U 25098T   26145.11633348  .00012050  00000+0  10150-2 0  99922 63943  70.0010  81.6186 0003090 267.4171  92.6634 14.98365945 58002

JSON: /api/v1/satellites/63943 · /tle

For live sub-satellite position, see the globe view (requires WebGL).

§ Visibility from observer

Set your observer location to see the next 7 days of passes ≥ 10°. The values pass through the URL so the page stays shareable.

No JS? Fill the form by hand. The geolocation button needs JavaScript.